Regional Weather Roundup
Issued by NWS Cleveland, OH

Home | Current Version | Previous Version | Text Only | Print | Product List | Glossary Off
Versions: 1 2 3 4 5 6 7 8 9 10 11 12 13 14 15 16 17 18 19 20 21 22 23 24 25 26 27 28 29 30 31 32 33 34 35 36 37 38 39 40 41 42 43 44 45 46 47 48 49 50

000
ASUS41 KCLE 281902
RWRCLE
OHIO REGIONAL WEATHER ROUNDUP
NATIONAL WEATHER SERVICE CLEVELAND, OH
200 PM EST SAT FEB 28 2015

NOTE: "FAIR" INDICATES FEW OR NO CLOUDS BELOW 12,000 FEET WITH NO
SIGNIFICANT WEATHER AND/OR OBSTRUCTIONS TO VISIBILITY.

OHZ001>008-015>018-024>027-034-035-043-044-282000-
   NORTHWEST OHIO

CITY           SKY/WX    TMP DP  RH WIND       PRES   REMARKS
DEFIANCE       MOSUNNY   20   0  41 S8        30.70F WCI  10
FINDLAY        SUNNY     18   2  49 SE8       30.69F WCI   8
TOLEDO EXPRESS SUNNY     18   0  45 S7        30.71F WCI   9
TOLEDO EXEC    SUNNY     19   2  47 S6        30.73F WCI  11
LIMA           PTSUNNY   20   2  45 E8        30.66F WCI  10
$$

OHZ009>014-019>023-028>033-038-089-282000-
   NORTHEAST OHIO

CITY           SKY/WX    TMP DP  RH WIND       PRES   REMARKS
CLE-HOPKINS    MOSUNNY   23  -1  35 W3        30.74F
CLE-LAKEFRONT  SUNNY     19   4  51 N6        30.73F WCI  11
CUY CO. ARPT   PTSUNNY   25   1  36 S7        30.71F WCI  17
LORAIN-ELYRIA  SUNNY     19  -1  41 S7        30.72F WCI  10
ASHTABULA      SUNNY     19  -3  38 S6        30.72F WCI  11
AKRON-CANTON   MOSUNNY   20  -1  40 SE6       30.67F WCI  12
WOOSTER        MOSUNNY   17   0  47 CALM      30.68F
MANSFIELD      PTSUNNY   22  -2  35 CALM      30.65F
YOUNGSTOWN     MOSUNNY   19  -4  36 CALM      30.68F
$$

OHZ042-051>053-060>062-070>072-077>081-282000-
  SOUTHWEST OHIO

CITY           SKY/WX    TMP DP  RH WIND       PRES   REMARKS
CINC-COVINGTON CLOUDY    26   6  42 E5        30.62F WCI  20
CINC-LUNKEN    CLOUDY    27   7  42 NE7       30.67F WCI  19
HAMILTON       PTSUNNY   26   6  42 E3        30.66F
DAYTON         PTSUNNY   22   2  42 SE10      30.64F WCI  11
WRIGHT-PAT AFB MOSUNNY   23   2  40 E7        30.66F WCI  15
DAYTON GENERAL MOSUNNY   23   4  44 E7        30.63F WCI  15
WILMINGTON     CLOUDY    21   6  52 NE8       30.63F WCI  11
$$

OHZ036-037-039>041-045>050-054>059-063>069-073>076-082>088-282000-
  CENTRAL AND SOUTHEAST OHIO

CITY           SKY/WX    TMP DP  RH WIND       PRES   REMARKS
COLUMBUS       PTSUNNY   22   0  38 E5        30.67F WCI  16
OSU AIRPORT    CLOUDY    22  -1  36 E5        30.66F WCI  16
BOLTON FIELD   CLOUDY    21   1  42 CALM      30.67F
RICKENBACK AFB CLOUDY    22   5  49 CALM      30.67F
NEWARK         CLOUDY    24  -1  33 SE5       30.65F WCI  18
MARION         CLOUDY    19  -4  36 MISG      30.67F
LANCASTER      CLOUDY    25   7  46 NE7       30.65F WCI  17
ZANESVILLE     CLOUDY    25   0  33 NE3       30.66F
NEW PHILLY     MOSUNNY   24  -1  33 VRB6      30.69F WCI  17
$$



USA.gov is the U.S. government's official web portal to all federal, state and local government web resources and services.